Tracking 26325 objects as of 28-Nov-2022
HD Live streaming from Space Station
objects crossing your sky now

WESTFORD NEEDLES

Track WESTFORD NEEDLES now!
10-day predictions
WESTFORD NEEDLES is classified as:


NORAD ID: 2377
Int'l Code: 1963-014X
Perigee: 2,756.6 km
Apogee: 4,479.6 km
Inclination: 87.3 °
Period: 165.6 minutes
Semi major axis: 9989 km
RCS: 0.1884 m2 (medium)
Launch date: May 9, 1963
Source: United States (US)
Launch site: AIR FORCE WESTERN TEST RANGE (AFWTR)
aabbcc
Your satellite tracking list
Your tracking list is empty




NASA's NSSDC Master Catalog

Two Line Element Set (TLE):
1  2377U 63014X   22303.53244524 -.00000032  00000-0 -10085-1 0  9994
2  2377  87.2609 293.3066 0862448 259.9928  90.2640  8.69582921810839
Source of the keplerian elements: AFSPC